Weather in Kozyn

Ukraine / Kyiv Region     50°12′58″N   30°39′32″E
temp.,
°C
wind,
m/s
gust,
m/s
humid.,
%
clouds,
%
prec.,
mm/h
press.,
hPa
HPBL,
m
21 january, fri
fri2123:000sw61287100 0.3 1005521
02:00−2w61281100 0.3 1005466
05:00−3w7138021 0.0 1005758
08:00−3wsw8158393 0.1 1005898
11:00−2wsw91574100 0.0 10051095
14:00−2wsw91583100 0.1 10041168
17:00−2w9158694 0.2 1005980
20:00−2w81581100 0.3 1005876
22 january, sat
sat2223:00−3wsw7149499 0.1 1006820
02:00−3w6139290 0.5 1006651
05:00−3w61290100 0.1 1006713
08:00−4w5118698 0.1 1008557
11:00−3wsw61082100 0.0 1009681
14:00−2wsw588899 0.2 1009718
17:00−3w4896100 0.3 1011414
20:00−4nw489196 0.5 1013414
23 january, sun
sun2323:00−6nw369387 0.0 1015195
02:00−6wnw239694 0.1 101679
05:00−8nnw119878 0.0 101810
08:00−7nne259568 0.1 1020249
11:00−6nne4583100 0.1 1022537
14:00−5nne4578100 0.1 1024792
17:00−7nne479067 0.0 1027314
20:00−8nne489384 0.1 1029297
24 january, mon
mon2423:00−9nne379683 0.1 1031227
02:00−9n499587 0.1 1031223
05:00−9n51192100 0.0 1031331
08:00−9n6139295 0.0 1032349
11:00−7n61382100 0.0 1031470
14:00−6n61189100 0.3 1030544
17:00−6n6119297 0.4 1031477
20:00−7n489497 0.5 1032322
25 january, tue
tue2523:00−8n599681 0.0 1031267
02:00−10n259785 0.1 1031142
05:00−10nnw369676 0.0 1030168
08:00−10nnw379540 0.0 1029202
11:00−7nnw358124 0.0 1028320
14:00−5nw237211 0.0 1026416
17:00−8wsw22925 0.0 102537
20:00−10wsw36915 0.0 102382